AB8YS Weather Reports


Display with metric or nautical units.
time (UTC)temp
F
wind
direction
speed
MPH
gust
MPH
rain 1hr
in
rain 24hr
in
rain mn
in
humidity
%
barometer
mb
20260902123008 78 248 0.0 0.0 0.00 0.00 0.00 85 1016.7
20260902121505 75 262 0.0 0.0 0.00 0.00 0.00 91 1016.6
20260902120008 74 262 0.0 0.0 0.00 0.00 0.00 92 1016.5
20260902114506 73 262 0.0 0.0 0.00 0.00 0.00 91 1016.4
20260902113003 74 262 0.0 0.0 0.00 0.00 0.00 91 1016.2
20260902111601 74 261 0.0 0.0 0.00 0.00 0.00 91 1016.1
20260902110106 74 261 0.0 0.0 0.00 0.00 0.00 91 1016.1
20260902104559 73 259 0.0 0.0 0.00 0.00 0.00 92 1016.1
20260902103106 73 259 0.0 0.0 0.00 0.00 0.00 92 1015.9
20260902101601 73 259 0.0 0.0 0.00 0.00 0.00 92 1015.9
20260902100057 73 259 0.0 0.0 0.00 0.00 0.00 92 1015.8
20260902094556 73 259 0.0 0.0 0.00 0.00 0.00 92 1015.9
20260902093132 73 259 0.0 0.0 0.00 0.00 0.00 92 1015.9
20260902091556 74 259 0.0 0.0 0.00 0.00 0.00 91 1015.7
20260902090058 74 259 0.0 0.0 0.00 0.00 0.00 91 1015.5
20260902084557 74 259 0.0 0.0 0.00 0.00 0.00 91 1015.5
20260902083053 74 259 0.0 0.0 0.00 0.00 0.00 92 1015.4
20260902081608 74 259 0.0 0.0 0.00 0.00 0.00 92 1015.3
20260902080047 74 259 0.0 0.0 0.00 0.00 0.00 91 1015.3
20260902074551 74 259 0.0 0.0 0.00 0.00 0.00 91 1015.2
20260902073045 74 259 0.0 0.0 0.00 0.00 0.00 91 1015.2
20260902071549 74 259 0.0 0.0 0.00 0.00 0.00 90 1015.2
20260902070042 74 259 0.0 0.0 0.00 0.00 0.00 90 1015.3
20260902064541 75 259 0.0 0.0 0.00 0.00 0.00 89 1015.2
20260902063044 75 259 0.0 0.0 0.00 0.00 0.00 88 1015.3
20260902061546 76 259 0.0 0.0 0.00 0.00 0.00 88 1015.4
20260902060035 76 259 0.0 0.0 0.00 0.00 0.00 87 1015.2
20260902054538 76 259 0.0 0.0 0.00 0.00 0.00 87 1015.3
20260902053034 76 259 0.0 0.0 0.00 0.00 0.00 86 1015.2
20260902051532 77 259 0.0 0.0 0.00 0.00 0.00 86 1015.2
20260902050033 77 259 0.0 0.0 0.00 0.00 0.00 86 1015.2
20260902044531 77 259 0.0 0.0 0.00 0.00 0.00 85 1015.3
20260902043030 77 259 0.0 0.0 0.00 0.00 0.00 84 1015.3
20260902041527 77 259 0.0 0.0 0.00 0.00 0.00 85 1015.4
20260902040026 77 259 0.0 0.0 0.00 0.00 0.00 85 1015.4
20260902034529 77 259 0.0 0.0 0.00 0.00 0.00 85 1015.3
20260902033025 77 259 0.0 0.0 0.00 0.00 0.00 85 1015.4
20260902031524 77 260 0.0 0.0 0.00 0.00 0.00 84 1015.4
20260902030025 77 259 0.0 0.0 0.00 0.00 0.00 83 1015.4
20260902024524 78 259 0.0 0.0 0.00 0.00 0.00 82 1015.4
20260902023023 78 259 0.0 0.0 0.00 0.00 0.00 82 1015.4
20260902021531 78 259 0.0 0.0 0.00 0.00 0.00 83 1015.3
20260902020023 79 259 0.0 0.0 0.00 0.00 0.00 81 1015.1
20260902014521 79 259 0.0 0.0 0.00 0.00 0.00 81 1015.1
20260902013021 79 259 0.0 0.0 0.00 0.00 0.00 81 1015.0
20260902011524 80 259 0.0 0.0 0.00 0.00 0.00 81 1014.9
20260902010021 81 259 0.0 0.0 0.00 0.00 0.00 80 1014.8
20260902004523 82 259 0.0 0.0 0.00 0.00 0.00 78 1014.6
20260902003026 82 259 0.0 0.0 0.00 0.00 0.00 76 1014.7
20260902001517 83 260 0.0 0.0 0.00 0.00 0.00 74 1014.7
20260902000015 84 259 0.0 0.0 0.00 0.00 0.00 72 1014.8
20260901234514 85 260 0.0 0.0 0.00 0.00 0.00 70 1014.9
20260901233016 86 259 0.0 0.0 0.00 0.00 0.00 68 1015.0
20260901231516 87 259 0.0 0.0 0.00 0.00 0.00 67 1015.0
20260901230014 87 259 0.0 0.0 0.00 0.00 0.00 65 1015.1
20260901224518 88 260 0.0 0.0 0.00 0.00 0.00 63 1015.1
20260901223012 89 260 0.0 0.0 0.00 0.00 0.00 61 1015.1
20260901221510 89 260 0.0 1.0 0.00 0.00 0.00 62 1015.1
20260901220009 90 229 0.0 1.0 0.00 0.00 0.00 62 1015.1
20260901214509 90 227 0.0 2.0 0.00 0.00 0.00 58 1015.0
20260901213012 90 260 0.0 2.0 0.00 0.00 0.00 58 1015.0
20260901211508 91 6 0.0 3.0 0.00 0.00 0.00 56 1015.0
20260901210011 91 267 0.0 2.0 0.00 0.00 0.00 57 1015.0
20260901204506 91 258 0.0 4.0 0.00 0.00 0.00 57 1015.1
20260901203007 92 254 0.0 6.0 0.00 0.00 0.00 57 1015.1
20260901201504 92 248 0.0 4.0 0.00 0.00 0.00 56 1015.1
20260901200004 92 242 1.0 4.0 0.00 0.00 0.00 56 1015.1
20260901194505 93 255 0.0 2.0 0.00 0.00 0.00 57 1015.2
20260901193003 93 285 0.0 1.0 0.00 0.00 0.00 57 1015.3
20260901191502 93 254 0.0 2.0 0.00 0.00 0.00 58 1015.4
20260901190002 94 252 0.0 4.0 0.00 0.00 0.00 57 1015.6
20260901184601 93 250 0.0 3.0 0.00 0.00 0.00 59 1015.7
20260901183058 93 272 0.0 2.0 0.00 0.00 0.00 57 1015.7
20260901181602 93 270 0.0 5.0 0.00 0.00 0.00 57 1015.9
20260901180056 92 262 0.0 1.0 0.00 0.00 0.00 57 1016.0
20260901174553 92 278 0.0 3.0 0.00 0.00 0.00 58 1016.1
20260901173051 91 272 0.0 2.0 0.00 0.00 0.00 62 1016.3
20260901171605 91 264 0.0 2.0 0.00 0.00 0.00 60 1016.4
20260901170050 90 276 0.0 0.0 0.00 0.00 0.00 64 1016.7
20260901164551 90 264 0.0 1.0 0.00 0.00 0.00 63 1016.7
20260901163042 89 277 0.0 1.0 0.00 0.00 0.00 65 1016.9
20260901161542 88 272 0.0 2.0 0.00 0.00 0.00 64 1016.9
20260901160040 88 264 0.0 2.0 0.00 0.00 0.00 65 1016.9
20260901154540 88 251 0.0 1.0 0.00 0.00 0.00 67 1017.0
20260901153034 87 275 0.0 2.0 0.00 0.00 0.00 69 1016.9
20260901151532 86 275 0.0 1.0 0.00 0.00 0.00 70 1016.9
20260901150029 86 267 0.0 1.0 0.00 0.00 0.00 71 1016.9
20260901144532 85 266 0.0 2.0 0.00 0.00 0.00 73 1017.0
20260901143024 84 274 0.0 2.0 0.00 0.00 0.00 73 1017.1
20260901141533 84 276 0.0 1.0 0.00 0.00 0.00 73 1017.2
20260901140018 82 271 0.0 1.0 0.00 0.00 0.00 75 1017.1
20260901134516 82 270 0.0 1.0 0.00 0.00 0.00 76 1017.2
20260901133018 81 277 0.0 2.0 0.00 0.00 0.00 79 1017.1
20260901131510 80 273 0.0 1.0 0.00 0.00 0.00 79 1017.3
20260901130006 79 59 0.0 1.0 0.00 0.00 0.00 82 1017.3
20260901124504 78 67 0.0 0.0 0.00 0.00 0.00 84 1017.4